Year,Month,Day,Hour,Minute,Value (Times are PST for temperature in C)
2006,06,29,00,00,13.40
2006,06,29,00,01,13.40
2006,06,29,00,02,13.40
2006,06,29,00,03,13.40
2006,06,29,00,04,13.30
2006,06,29,00,05,13.30
2006,06,29,00,06,13.30
2006,06,29,00,07,13.30
2006,06,29,00,08,13.30
2006,06,29,00,09,13.20
2006,06,29,00,10,13.20
2006,06,29,00,11,13.20
2006,06,29,00,12,13.10
2006,06,29,00,13,13.10
2006,06,29,00,14,13.10
2006,06,29,00,15,13.00
2006,06,29,00,16,13.00
2006,06,29,00,17,13.00
2006,06,29,00,18,12.90
2006,06,29,00,19,12.90
2006,06,29,00,20,12.90
2006,06,29,00,21,12.90
2006,06,29,00,22,12.80
2006,06,29,00,23,12.80
2006,06,29,00,24,12.80
2006,06,29,00,25,12.80
2006,06,29,00,26,12.80
2006,06,29,00,27,12.80
2006,06,29,00,28,12.80
2006,06,29,00,29,12.70
2006,06,29,00,30,12.70
2006,06,29,00,31,12.70
2006,06,29,00,32,12.70
2006,06,29,00,33,12.70
2006,06,29,00,34,12.60
2006,06,29,00,35,12.60
2006,06,29,00,36,12.60
2006,06,29,00,37,12.60
2006,06,29,00,38,12.60
2006,06,29,00,39,12.50
2006,06,29,00,40,12.50
2006,06,29,00,41,12.50
2006,06,29,00,42,12.50
2006,06,29,00,43,12.50
2006,06,29,00,44,12.40
2006,06,29,00,45,12.40
2006,06,29,00,46,12.40
2006,06,29,00,47,12.40
2006,06,29,00,48,12.40
2006,06,29,00,49,12.30
2006,06,29,00,50,12.30
2006,06,29,00,51,12.30
2006,06,29,00,52,12.30
2006,06,29,00,53,12.30
2006,06,29,00,54,12.30
2006,06,29,00,55,12.30
2006,06,29,00,56,12.30
2006,06,29,00,57,12.30
2006,06,29,00,58,12.30
2006,06,29,00,59,12.20
2006,06,29,01,00,12.20
2006,06,29,01,01,12.20
2006,06,29,01,02,12.20
2006,06,29,01,03,12.20
2006,06,29,01,04,12.20
2006,06,29,01,05,12.10
2006,06,29,01,06,12.10
2006,06,29,01,07,12.10
2006,06,29,01,08,12.10
2006,06,29,01,09,12.00
2006,06,29,01,10,12.00
2006,06,29,01,11,12.00
2006,06,29,01,12,12.00
2006,06,29,01,13,12.00
2006,06,29,01,14,11.90
2006,06,29,01,15,11.90
2006,06,29,01,16,11.90
2006,06,29,01,17,11.90
2006,06,29,01,18,11.80
2006,06,29,01,19,11.80
2006,06,29,01,20,11.80
2006,06,29,01,21,11.80
2006,06,29,01,22,11.80
2006,06,29,01,23,11.80
2006,06,29,01,24,11.80
2006,06,29,01,25,11.80
2006,06,29,01,26,11.70
2006,06,29,01,27,11.70
2006,06,29,01,28,11.70
2006,06,29,01,29,11.70
2006,06,29,01,30,11.70
2006,06,29,01,31,11.60
2006,06,29,01,32,11.60
2006,06,29,01,33,11.60
2006,06,29,01,34,11.60
2006,06,29,01,35,11.60
2006,06,29,01,36,11.60
2006,06,29,01,37,11.60
2006,06,29,01,38,11.60
2006,06,29,01,39,11.60
2006,06,29,01,40,11.60
2006,06,29,01,41,11.60
2006,06,29,01,42,11.60
2006,06,29,01,43,11.60
2006,06,29,01,44,11.60
2006,06,29,01,45,11.60
2006,06,29,01,46,11.60
2006,06,29,01,47,11.60
2006,06,29,01,48,11.60
2006,06,29,01,49,11.60
2006,06,29,01,50,11.60
2006,06,29,01,51,11.60
2006,06,29,01,52,11.60
2006,06,29,01,53,11.60
2006,06,29,01,54,11.60
2006,06,29,01,55,11.60
2006,06,29,01,56,11.50
2006,06,29,01,57,11.40
2006,06,29,01,58,11.40
2006,06,29,01,59,11.40
2006,06,29,02,00,11.40
2006,06,29,02,01,11.40
2006,06,29,02,02,11.40
2006,06,29,02,03,11.40
2006,06,29,02,04,11.40
2006,06,29,02,05,11.40
2006,06,29,02,06,11.40
2006,06,29,02,07,11.40
2006,06,29,02,08,11.40
2006,06,29,02,09,11.40
2006,06,29,02,10,11.40
2006,06,29,02,11,11.40
2006,06,29,02,12,11.40
2006,06,29,02,13,11.40
2006,06,29,02,14,11.30
2006,06,29,02,15,11.30
2006,06,29,02,16,11.30
2006,06,29,02,17,11.30
2006,06,29,02,18,11.20
2006,06,29,02,19,11.20
2006,06,29,02,20,11.20
2006,06,29,02,21,11.20
2006,06,29,02,22,11.20
2006,06,29,02,23,11.20
2006,06,29,02,24,11.20
2006,06,29,02,25,11.10
2006,06,29,02,26,11.10
2006,06,29,02,27,11.10
2006,06,29,02,28,11.10
2006,06,29,02,29,11.10
2006,06,29,02,30,11.10
2006,06,29,02,31,11.10
2006,06,29,02,32,11.10
2006,06,29,02,33,11.10
2006,06,29,02,34,11.10
2006,06,29,02,35,11.10
2006,06,29,02,36,11.10
2006,06,29,02,37,11.10
2006,06,29,02,38,11.10
2006,06,29,02,39,11.10
2006,06,29,02,40,11.00
2006,06,29,02,41,10.90
2006,06,29,02,42,10.90
2006,06,29,02,43,10.90
2006,06,29,02,44,10.90
2006,06,29,02,45,10.90
2006,06,29,02,46,10.90
2006,06,29,02,47,10.90
2006,06,29,02,48,10.80
2006,06,29,02,49,10.80
2006,06,29,02,50,10.80
2006,06,29,02,51,10.80
2006,06,29,02,52,10.80
2006,06,29,02,53,10.80
2006,06,29,02,54,10.70
2006,06,29,02,55,10.70
2006,06,29,02,56,10.70
2006,06,29,02,57,10.70
2006,06,29,02,58,10.70
2006,06,29,02,59,10.60
2006,06,29,03,00,10.60
2006,06,29,03,01,10.60
2006,06,29,03,02,10.60
2006,06,29,03,03,10.60
2006,06,29,03,04,10.60
2006,06,29,03,05,10.60
2006,06,29,03,06,10.60
2006,06,29,03,07,10.60
2006,06,29,03,08,10.60
2006,06,29,03,09,10.60
2006,06,29,03,10,10.60
2006,06,29,03,11,10.60
2006,06,29,03,12,10.60
2006,06,29,03,13,10.60
2006,06,29,03,14,10.60
2006,06,29,03,15,10.60
2006,06,29,03,16,10.60
2006,06,29,03,17,10.60
2006,06,29,03,18,10.60
2006,06,29,03,19,10.50
2006,06,29,03,20,10.50
2006,06,29,03,21,10.40
2006,06,29,03,22,10.40
2006,06,29,03,23,10.40
2006,06,29,03,24,10.40
2006,06,29,03,25,10.40
2006,06,29,03,26,10.40
2006,06,29,03,27,10.40
2006,06,29,03,28,10.40
2006,06,29,03,29,10.40
2006,06,29,03,30,10.40
2006,06,29,03,31,10.40
2006,06,29,03,32,10.40
2006,06,29,03,33,10.40
2006,06,29,03,34,10.40
2006,06,29,03,35,10.40
2006,06,29,03,36,10.40
2006,06,29,03,37,10.40
2006,06,29,03,38,10.40
2006,06,29,03,39,10.40
2006,06,29,03,40,10.40
2006,06,29,03,41,10.40
2006,06,29,03,42,10.40
2006,06,29,03,43,10.40
2006,06,29,03,44,10.40
2006,06,29,03,45,10.40
2006,06,29,03,46,10.40
2006,06,29,03,47,10.40
2006,06,29,03,48,10.40
2006,06,29,03,49,10.40
2006,06,29,03,50,10.40
2006,06,29,03,51,10.30
2006,06,29,03,52,10.40
2006,06,29,03,53,10.40
2006,06,29,03,54,10.40
2006,06,29,03,55,10.40
2006,06,29,03,56,10.40
2006,06,29,03,57,10.40
2006,06,29,03,58,10.40
2006,06,29,03,59,10.40
2006,06,29,04,00,10.40
2006,06,29,04,01,10.40
2006,06,29,04,02,10.30
2006,06,29,04,03,10.30
2006,06,29,04,04,10.30
2006,06,29,04,05,10.30
2006,06,29,04,06,10.30
2006,06,29,04,07,10.30
2006,06,29,04,08,10.30
2006,06,29,04,09,10.30
2006,06,29,04,10,10.20
2006,06,29,04,11,10.20
2006,06,29,04,12,10.20
2006,06,29,04,13,10.20
2006,06,29,04,14,10.20
2006,06,29,04,15,10.20
2006,06,29,04,16,10.20
2006,06,29,04,17,10.20
2006,06,29,04,18,10.20
2006,06,29,04,19,10.20
2006,06,29,04,20,10.20
2006,06,29,04,21,10.20
2006,06,29,04,22,10.20
2006,06,29,04,23,10.20
2006,06,29,04,24,10.10
2006,06,29,04,25,10.10
2006,06,29,04,26,10.10
2006,06,29,04,27,10.20
2006,06,29,04,28,10.20
2006,06,29,04,29,10.20
2006,06,29,04,30,10.20
2006,06,29,04,31,10.20
2006,06,29,04,32,10.20
2006,06,29,04,33,10.20
2006,06,29,04,34,10.20
2006,06,29,04,35,10.20
2006,06,29,04,36,10.20
2006,06,29,04,37,10.20
2006,06,29,04,38,10.20
2006,06,29,04,39,10.10
2006,06,29,04,40,10.10
2006,06,29,04,41,10.10
2006,06,29,04,42,10.10
2006,06,29,04,43,10.10
2006,06,29,04,44,10.10
2006,06,29,04,45,10.10
2006,06,29,04,46,10.10
2006,06,29,04,47,10.10
2006,06,29,04,48,10.10
2006,06,29,04,49,10.10
2006,06,29,04,50,10.10
2006,06,29,04,51,10.10
2006,06,29,04,52,10.10
2006,06,29,04,53,10.10
2006,06,29,04,54,10.10
2006,06,29,04,55,10.10
2006,06,29,04,56,10.10
2006,06,29,04,57,10.10
2006,06,29,04,58,10.10
2006,06,29,04,59,10.10
2006,06,29,05,00,10.00
2006,06,29,05,01,9.90
2006,06,29,05,02,9.90
2006,06,29,05,03,9.90
2006,06,29,05,04,9.90
2006,06,29,05,05,9.90
2006,06,29,05,06,9.90
2006,06,29,05,07,9.90
2006,06,29,05,08,9.90
2006,06,29,05,09,9.90
2006,06,29,05,10,9.90
2006,06,29,05,11,9.90
2006,06,29,05,12,9.90
2006,06,29,05,13,9.90
2006,06,29,05,14,9.90
2006,06,29,05,15,9.90
2006,06,29,05,16,9.90
2006,06,29,05,17,9.90
2006,06,29,05,18,9.90
2006,06,29,05,19,9.90
2006,06,29,05,20,9.90
2006,06,29,05,21,9.90
2006,06,29,05,22,9.90
2006,06,29,05,23,9.90
2006,06,29,05,24,9.90
2006,06,29,05,25,9.90
2006,06,29,05,26,9.90
2006,06,29,05,27,10.00
2006,06,29,05,28,10.10
2006,06,29,05,29,10.10
2006,06,29,05,30,10.10
2006,06,29,05,31,10.10
2006,06,29,05,32,10.10
2006,06,29,05,33,10.10
2006,06,29,05,34,10.10
2006,06,29,05,35,10.10
2006,06,29,05,36,10.10
2006,06,29,05,37,10.10
2006,06,29,05,38,10.10
2006,06,29,05,39,10.10
2006,06,29,05,40,10.10
2006,06,29,05,41,10.10
2006,06,29,05,42,10.10
2006,06,29,05,43,10.20
2006,06,29,05,44,10.20
2006,06,29,05,45,10.20
2006,06,29,05,46,10.30
2006,06,29,05,47,10.30
2006,06,29,05,48,10.40
2006,06,29,05,49,10.40
2006,06,29,05,50,10.40
2006,06,29,05,51,10.40
